Regional Weather Roundup
Issued by NWS

Home | Current Version | Previous Version | Graphics & Text | Print | Product List | Glossary Off
Versions: 1 2 3 4 5 6 7 8 9 10 11 12 13 14 15 16 17 18 19 20 21 22 23 24 25 26 27 28 29 30 31 32 33 34 35 36 37 38 39 40 41 42 43 44 45 46 47 48 49 50

000
ASUS43 KMPX 290310
RWRMN
WEATHER ROUNDUP FOR MINNESOTA
NATIONAL WEATHER SERVICE TWIN CITIES/CHANHASSEN MN
1000 PM CDT SUN MAY 28 2017


NOTE: "FAIR" INDICATES FEW OR NO CLOUDS BELOW 12,000 FEET WITH NO
SIGNIFICANT WEATHER AND/OR OBSTRUCTIONS TO VISIBILITY. N/A MEANS
CURRENT SKY AND/OR WEATHER CONDITIONS ARE NOT AVAILABLE.

MNZ060>063-068>070-290400-
   Twin Cities Metro

CITY           SKY/WX    TMP DP  RH WIND       PRES   REMARKS
TWIN CITIES    PTCLDY    57  48  72 NW6       29.74S
ST PAUL        CLOUDY    57  49  74 NW5       29.74R
CRYSTAL        PTCLDY    53  48  83 W5        29.73S
BLAINE         MOCLDY    54  52  94 SW5       29.73S
LAKEVILLE      MOCLDY    57  46  67 NW8       29.75S
EDEN PRAIRIE   PTCLDY    59  46  62 NW7       29.73S
SOUTH ST PAUL  MOCLDY    58  48  71 W5        29.74S
LAKE ELMO      MOCLDY    54  50  87 CALM      29.74F
$$
MNZ001>005-007-008-013>017-022>024-027-028-290400-
   Northwest Minnesota

CITY           SKY/WX    TMP DP  RH WIND       PRES   REMARKS
BEMIDJI        CLOUDY    51  48  90 NW14G23   29.71R
HALLOCK        CLOUDY    54  48  82 NW18G24   29.76R
ROSEAU         CLOUDY    52  46  82 NW8       29.72R
WARROAD        MOCLDY    54  46  76 NW13G18   29.71R
THIEF RVR FALL CLOUDY    52  46  80 NW13      29.76R
CROOKSTON      MOCLDY    52  48  87 NW13      29.78R
FOSSTON        CLOUDY    50  46  87 NW14      29.75R
DETROIT LAKES  MOCLDY    52  46  82 NW15G21   29.77R
MOORHEAD       CLOUDY    54  50  87 NW8       29.79S
PARK RAPIDS    CLOUDY    52  46  80 NW15G21   29.71S
MAHNOMEN       CLOUDY    51  47  88 NW10      29.75S
$$
MNZ006-009>011-018-025>026-290400-
   North Central Minnesota

CITY           SKY/WX    TMP DP  RH WIND       PRES   REMARKS
BAUDETTE       CLOUDY    54  50  86 NW10      29.67R
FLAG ISLAND    CLEAR     52  46  82 NW16G22   29.68R
INTL FALLS     CLOUDY    54  49  83 NW8       29.64R
WASKISH        CLOUDY    54  50  87 NW12      29.68S
BIG FORK       CLOUDY    54  48  82 CALM      29.66S
LONGVILLE      RAIN      52  48  87 W6        29.69R
GRAND RAPIDS   CLOUDY    53  48  83 W6        29.68S
CRANE LAKE     CLOUDY    52  50  93 CALM      29.64R
ORR            CLOUDY    54  46  76 W3        29.61S
COOK           CLOUDY    54  48  82 CALM      29.64S
WALKER         CLOUDY    50  49  93 W3        29.70S
$$
MNZ012-019>021-037-290400-
   Northeast Minnesota

CITY           SKY/WX    TMP DP  RH WIND       PRES   REMARKS
DULUTH         MOCLDY    53  48  83 W9        29.65R
ELY            DRIZZLE   50  48  93 W6        29.62S
HIBBING        LGT RAIN  50  50 100 SW3       29.64F
EVELETH        CLOUDY    54  47  79 SW5       29.65S
DULUTH HARBOR  CLOUDY    57  52  82 SW8       29.65S
TWO HARBORS    CLOUDY    55  50  82 CALM      29.61S
SILVER BAY     CLOUDY    52  52 100 CALM      29.60F
GRAND MARAIS     N/A     45  45 100 CALM      29.61R
G MARAIS ARPRT CLOUDY    48  45  87 CALM      29.61S
$$
MNZ029>031-032-039>041-046>048-054>057-064-290400-
   West Central Minnesota

CITY           SKY/WX    TMP DP  RH WIND       PRES   REMARKS
FERGUS FALLS   CLOUDY    54  46  76 N15       29.78R
WHEATON        CLEAR     54  45  71 W10       29.83R
MORRIS         PTCLDY    54  48  82 NW13      29.80R
ALEXANDRIA     CLOUDY    54  47  77 NW13G23   29.77R
ELBOW LAKE     CLOUDY    55  49  82 W16G23    29.79R
WADENA         CLOUDY    54  46  76 NW15      29.73R
GLENWOOD       PTCLDY    55  46  71 NW17G26   29.77R
APPLETON       MOCLDY    61  43  51 NW18G30   29.81R
BENSON         MOCLDY    59  46  63 N22G31    29.81R
ORTONVILLE     CLEAR     57  45  62 NW14G21   29.83R
MADISON        PTCLDY    61  46  59 W15       29.83R
WILLMAR        FAIR      59  45  58 W16       29.79S
$$
MNZ033>034-036-042>043-049>051-058-059-290400-
   Central Minnesota

CITY           SKY/WX    TMP DP  RH WIND       PRES   REMARKS
ST CLOUD       PTCLDY    51  49  92 SW7       29.74R
SAUK CENTRE    RAIN      53  48  83 W13       29.76R
PAYNESVILLE    CLOUDY    56  43  61 W12       29.77R
AITKIN         CLEAR     50  46  87 CALM      29.67S
PINE RIVER     LGT RAIN  54  46  76 W6        29.74R
BRAINERD       CLEAR     51  45  79 SW6       29.70S
STAPLES        RAIN      52  46  82 NW6       29.72R
LONG PRAIRIE   CLOUDY    52  50  93 CALM      29.75R
LITTLE FALLS   MOCLDY    50  46  87 CALM      29.73R
LITCHFIELD     MOCLDY    61  45  55 W9        29.78R
BUFFALO        MOCLDY    54  48  81 CALM      29.76R
MAPLE LAKE     PTCLDY    52  50  93 W3        29.76R
HUTCHINSON     CLOUDY    58  47  65 SW12      29.78S
$$
MNZ037-044-045-052-053-290400-
   East Central Minnesota

CITY           SKY/WX    TMP DP  RH WIND       PRES   REMARKS
PRINCETON      PTCLDY    52  48  87 SW3       29.72S
MORA           CLOUDY    52  48  87 CALM      29.71S
CAMBRIDGE      MOCLDY    54  46  76 SW5       29.70R
RUSH CITY      CLOUDY    55  48  76 SW3       29.69F
MOOSE LAKE     CLEAR     50  45  81 W3        29.66S
HINCKLEY       FAIR      50  48  93 W7        29.68F
CLOQUET        MOCLDY    52  46  82 W3        29.66S
MCGREGOR       CLEAR     52  46  82 W5        29.68S
$$
MNZ071>073-080-081-089-090-097-098-290400-
   Southwest Minnesota

CITY           SKY/WX    TMP DP  RH WIND       PRES   REMARKS
MONTEVIDEO     MOCLDY    59  45  58 W9G16     29.80R
CANBY          PTCLDY    57  49  72 SW10      29.85R
MARSHALL       PTCLDY    56  48  74 W9        29.84S
REDWOOD FALLS  CLEAR     59  42  53 W14       29.79F
OLIVIA         CLEAR     55  43  62 W12       29.79R
PIPESTONE      PTCLDY    55  46  71 W3        29.86S
WINDOM         MOCLDY    55  48  76 W6        29.83F
WORTHINGTON    CLOUDY    55  50  83 SW7       29.86F
JACKSON        CLOUDY    54  46  76 CALM      29.85F
TRACY          MOCLDY    57  48  72 W3        29.84S
SLAYTON        MOCLDY    55  47  74 W10       29.85S
$$
MNZ065>067-074>077-082>085-091>093-290400-
   South Central Minnesota

CITY           SKY/WX    TMP DP  RH WIND       PRES   REMARKS
MANKATO        PTCLDY    62  43  49 W14       29.79S
NEW ULM        CLOUDY    59  43  55 W14       29.81R
ST JAMES       PTCLDY    61  45  55 W12       29.83S
FAIRMONT       CLOUDY    62  43  49 W16G24    29.83S
GLENCOE        PTCLDY    60  48  64 SW3       29.77R
FARIBAULT      CLOUDY    61  45  55 W7        29.78R
OWATONNA       PTCLDY    63  39  42 W10       29.78R
WASECA         CLOUDY    59  41  51 W13       29.80R
ALBERT LEA     MOCLDY    68  41  37 NW10G22   29.78R
$$
MNZ078>079-086>088-094>096-290400-
   Southeast Minnesota

CITY           SKY/WX    TMP DP  RH WIND       PRES   REMARKS
ROCHESTER      CLOUDY    57  47  69 SW8       29.76S
RED WING       RAIN      57  48  72 NW7G20    29.73R
STANTON        CLOUDY    62  44  52 NW10      29.74R
DODGE CENTER   CLOUDY    63  43  48 W15       29.77R
WINONA         CLEAR     61  46  59 CALM      29.73S
AUSTIN         CLOUDY    63  39  42 W8        29.78R
PRESTON        CLEAR     60  42  51 W5        29.77R
$$
ABBREVIATIONS USED IN REMARKS
   TC - TEMPERATURES IN CELSIUS
  WCI - WIND CHILL INDEX
   HX - HEAT INDEX
  VSB - VISIBILITY
$$



USA.gov is the U.S. government's official web portal to all federal, state and local government web resources and services.